Ephrata, WA

5:43 AM PDT on September 25, 2017 (GMT -0700)
Ephrata Municipal

Weather History for KEPH - January, 2014

Change the Weather History Date:

Saturday, January 25, 2014

  Actual Average Record
Temperature  
Mean Temperature 30 °F 30 °F  
Max Temperature 32 °F 37 °F 53 °F (1992)
Min Temperature 28 °F 24 °F -12 °F (1950)
Degree Days  
Heating Degree Days 35 35  
Month to date heating degree days 810 917  
Since 1 July heating degree days 3395 3503  
Cooling Degree Days 0 0  
Month to date cooling degree days 0 0  
Year to date cooling degree days 0 0  
Moisture  
Dew Point 26 °F    
Average Humidity 85    
Maximum Humidity 92    
Minimum Humidity 78    
Precipitation  
Precipitation 0.00 in 0.02 in 0.26 in (1969)
Month to date precipitation 0.02 0.76  
Year to date precipitation 0.02 0.76  
Sea Level Pressure  
Sea Level Pressure 30.52 in    
Wind  
Wind Speed 2 mph (South)    
Max Wind Speed 12 mph    
Max Gust Speed -    
Visibility 10 miles    
Events      
T = Trace of Precipitation, MM = Missing Value Source: NWS Daily Summary

Daily Weather History Graph

Daily Weather History Graph

Search for Another Location

Airport or City:

Trip Planner

Search our weather history database for the weather conditions in past years. The results will help you decide how hot, cold, wet, or windy it might be!

Date:

Astronomy

Jan. 25, 2014 Rise Set
Actual Time 7:31 AM PST 4:49 PM PST
Civil Twilight 6:58 AM PST 5:23 PM PST
Nautical Twilight 6:21 AM PST 6:00 PM PST
Astronomical Twilight 5:44 AM PST 6:36 PM PST
Moon 2:07 AM PST 11:54 AM PST
Length of Visible Light 10h 24m
Length of Day
9h 17m
Waning Crescent, 33% of the Moon is Illuminated
Jan 25
Waning Crescent
Jan 30
New
Feb 6
First Quarter
Feb 14
Full
Feb 22
Last Quarter

Hourly Weather History & Observations

Time (PST) Temp. Windchill Dew Point Humidity Pressure Visibility Wind Dir Wind Speed Gust Speed Precip Events Conditions
12:53 AM 30.0 °F - 25.0 °F 82% 30.61 in 10.0 mi Calm Calm - N/A   Clear
1:53 AM 30.0 °F 26.5 °F 26.1 °F 85% 30.60 in 10.0 mi NNE 3.5 mph - N/A   Clear
2:53 AM 28.9 °F - 26.1 °F 89% 30.60 in 9.0 mi Calm Calm - N/A   Clear
3:53 AM 28.9 °F - 26.1 °F 89% 30.58 in 10.0 mi Calm Calm - N/A   Clear
4:53 AM 28.9 °F 25.2 °F 26.1 °F 89% 30.57 in 10.0 mi SW 3.5 mph - N/A   Clear
5:53 AM 28.9 °F 25.2 °F 26.1 °F 89% 30.56 in 10.0 mi South 3.5 mph - N/A   Clear
6:53 AM 30.0 °F - 25.0 °F 82% 30.56 in 10.0 mi Calm Calm - N/A   Clear
7:53 AM 28.9 °F - 25.0 °F 85% 30.56 in 10.0 mi Calm Calm - N/A   Clear
8:53 AM 28.9 °F 25.2 °F 26.1 °F 89% 30.56 in 10.0 mi WSW 3.5 mph - N/A   Unknown
9:53 AM 30.0 °F 26.5 °F 26.1 °F 85% 30.56 in 9.0 mi SSW 3.5 mph - N/A   Unknown
10:53 AM 30.0 °F 26.5 °F 26.1 °F 85% 30.56 in 10.0 mi SSW 3.5 mph - N/A   Unknown
11:53 AM 30.0 °F 26.5 °F 25.0 °F 82% 30.53 in 10.0 mi South 3.5 mph - N/A   Unknown
12:53 PM 30.0 °F - 25.0 °F 82% 30.51 in 10.0 mi Calm Calm - N/A   Unknown
1:53 PM 30.9 °F 26.2 °F 25.0 °F 79% 30.50 in 10.0 mi ESE 4.6 mph - N/A   Unknown
2:53 PM 30.0 °F - 25.0 °F 82% 30.49 in 10.0 mi Calm Calm - N/A   Unknown
3:53 PM 28.9 °F - 25.0 °F 85% 30.49 in 10.0 mi Calm Calm - N/A   Unknown
4:53 PM 28.9 °F - 25.0 °F 85% 30.48 in 10.0 mi Calm Calm - N/A   Unknown
5:53 PM 28.9 °F - 25.0 °F 85% 30.47 in 10.0 mi Calm Calm - N/A   Unknown
6:53 PM 28.0 °F 24.2 °F 25.0 °F 88% 30.46 in 10.0 mi ESE 3.5 mph - N/A   Unknown
7:53 PM 28.0 °F - 25.0 °F 88% 30.45 in 10.0 mi Calm Calm - N/A   Unknown
8:53 PM 28.0 °F - 25.0 °F 88% 30.44 in 10.0 mi Calm Calm - N/A   Unknown
9:53 PM 28.0 °F 24.2 °F 26.1 °F 92% 30.43 in 10.0 mi South 3.5 mph - N/A   Unknown
10:53 PM 28.0 °F 24.2 °F 26.1 °F 92% 30.42 in 8.0 mi South 3.5 mph - N/A   Unknown
11:53 PM 28.0 °F 24.2 °F 26.1 °F 92% 30.41 in 7.0 mi SSW 3.5 mph - N/A   Unknown